Location: Unspecified
(50.1700°N, 6.8600°E)
Time: 14:27:05
(UTC+00:00)

Cosmos 371 Rocket - Visible Passes

Search period start: 25 April 2019 00:00
Search period end: 05 May 2019 00:00
Orbit: 685 x 698 km, 74.0° (Epoch: 24 April)

Date Brightness Start Highest point End Pass type
(mag) Time Alt. Az. Time Alt. Az. Time Alt. Az.
25 Apr 4.9 01:23:05 20° SE 01:25:03 27° E 01:29:04 10° NE visible
25 Apr 3.8 03:01:45 17° SW 03:05:14 46° WNW 03:09:54 10° NNE visible
26 Apr 5.8 00:25:11 10° E 00:25:47 10° E 00:26:22 10° E visible
26 Apr 3.4 02:03:01 31° S 02:05:17 74° ESE 02:10:06 10° NNE visible
26 Apr 4.9 03:42:40 10° W 03:46:15 20° NW 03:49:51 10° N visible
27 Apr 4.7 01:04:16 25° SE 01:05:39 29° ESE 01:09:46 10° NE visible
27 Apr 3.9 02:42:56 20° WSW 02:45:54 43° WNW 02:50:30 10° NNE visible
28 Apr 5.7 00:05:30 11° ESE 00:06:22 11° E 00:07:43 10° ENE visible
28 Apr 3.3 01:44:10 40° S 01:45:54 79° ESE 01:50:44 10° NNE visible
28 Apr 5.0 03:23:28 10° W 03:26:56 19° NW 03:30:25 10° N visible
29 Apr 4.5 00:45:20 28° ESE 00:46:15 31° ESE 00:50:28 10° NE visible
29 Apr 4.0 02:24:00 23° WSW 02:26:33 40° WNW 02:31:07 10° NNE visible
29 Apr 5.6 23:46:30 12° E 23:46:56 12° E 23:48:45 10° ENE visible
30 Apr 3.2 01:25:09 47° SSW 01:26:32 84° ESE 01:31:23 10° NNE visible
30 Apr 5.2 03:04:17 10° W 03:07:37 18° NW 03:10:59 10° N visible
01 May 4.3 00:26:18 32° ESE 00:26:51 33° ESE 00:31:09 10° NE visible
01 May 4.1 02:04:57 24° WSW 02:07:13 38° WNW 02:11:43 10° NNE visible
01 May 5.5 23:27:24 13° E 23:27:31 13° E 23:29:42 10° ENE visible
02 May 3.2 01:06:03 54° SSW 01:07:10 90° E 01:12:01 10° NNE visible
02 May 5.3 02:45:06 10° W 02:48:19 17° NW 02:51:32 10° N visible
03 May 4.2 00:07:08 35° ESE 00:07:28 35° ESE 00:11:50 10° NE visible
03 May 4.3 01:45:47 24° WSW 01:47:53 36° WNW 01:52:20 10° N visible
03 May 5.4 23:08:12 14° E 23:08:12 14° E 23:10:34 10° ENE visible
04 May 3.2 00:46:51 58° SSW 00:47:48 85° WNW 00:52:38 10° NNE visible
04 May 5.4 02:25:56 10° W 02:29:00 17° NW 02:32:06 10° N visible
04 May 4.0 23:47:53 37° ESE 23:48:04 38° ESE 23:52:31 10° NE visible
